Location: Kumla
(59.1265°N, 15.1401°E)
Time: 20:17:34
(UTC+01:00)

Transit 2A - Pass Details

Date: 12 December 2023
Orbit: 600 x 953 km, 66.7° (Epoch: 24 February)

Event Time Altitude Azimuth Distance (km) Brightness Sun altitude
Rises 22:15:38 0° 310° (NW) 2,872 - -50.1°
Reaches altitude 10° 22:18:03 10° 300° (WNW) 1,954 - -50.2°
Maximum altitude 22:21:56 32° 237° (WSW) 1,036 - -50.5°
Drops below altitude 10° 22:25:51 10° 174° (S) 1,976 - -50.8°
Sets 22:28:18 0° 165° (SSE) 2,909 - -51.0°
